Location: Karlsruhe
(49.0131°N, 8.3874°E)
Time: 22:30:20
(UTC+01:00)

ISS - Visible Passes

Search period start: 25 February 2018 00:00
Search period end: 07 March 2018 00:00
Orbit: 403 x 406 km, 51.6° (Epoch: 26 February)

Date Brightness Start Highest point End Pass type
(mag) Time Alt. Az. Time Alt. Az. Time Alt. Az.
26 Feb -0.8 06:24:55 10° S 06:26:43 14° SE 06:28:31 10° ESE visible
28 Feb -1.8 06:15:36 10° SSW 06:18:25 27° SE 06:21:15 10° E visible
01 Mar -1.2 05:24:10 10° S 05:26:21 17° SE 05:28:32 10° E visible
02 Mar -3.1 06:07:01 10° SW 06:10:11 49° SSE 06:13:23 10° ENE visible
03 Mar -2.4 05:17:00 25° S 05:18:00 31° SE 05:20:58 10° E visible
04 Mar -1.2 04:26:55 17° ESE 04:26:55 17° ESE 04:28:20 10° E visible
04 Mar -3.8 05:59:34 17° WSW 06:02:00 86° SSE 06:05:18 10° ENE visible
05 Mar -3.6 05:09:24 54° S 05:09:44 58° SSE 05:12:58 10° ENE visible
06 Mar -1.3 04:19:09 21° E 04:19:09 21° E 04:20:33 10° E visible
06 Mar -3.7 05:51:47 20° W 05:53:52 65° NNW 05:57:08 10° ENE visible
